Other Public Products
Issued by NWS Grand Forks, ND

Home | Current Version | Previous Version | Graphics & Text | Print | Product List | Glossary On
Versions: 1 2 3 4 5 6 7 8 9 10 11 12 13 14 15 16 17 18 19 20 21 22 23 24 25 26 27 28 29 30 31 32 33 34 35 36 37 38 39 40 41 42 43 44 45 46 47 48 49 50
000
FPUS83 KFGF 232331
OPUFGF
PRAIRIE TO PINES WEATHER ROUNDUP
NATIONAL WEATHER SERVICE EASTERN NORTH DAKOTA/GRAND FORKS ND
600 PM CDT WED APR 23 2014

 **SATELLITE DATA USED TO AUGMENT SKY COVER AT AUTOMATED STATIONS**
 *****  WEATHER ACROSS EASTERN NORTH DAKOTA  *****

CITY           SKY/WX    TMP DP  RH WIND       PRES   REMARKS
GRAND FORKS    LGT RAIN  42  39  89 SE22G36   29.85S
GRAND FORKS AF LGT RAIN  41  41  99 SE16G23   29.83F
GRAND CITY NWS   N/A     41 N/A N/A SE18        N/A
BUXTON           N/A     41  40  99 E18G33      N/A
DEVILS LAKE    CLOUDY    39  34  81 SE28G41   29.67F
FARGO          LGT RAIN  44  39  82 SE21G32   29.82S
WAHPETON ARPT  CLOUDY    41  36  81 SE22G29   29.80F
$$

 *****  WEATHER ACROSS CENTRAL AND WESTERN NORTH DAKOTA  *****

CITY           SKY/WX    TMP DP  RH WIND       PRES   REMARKS
JAMESTOWN      LGT RAIN  42  40  92 SE24G30   29.68F FOG
BISMARCK       CLOUDY    55  46  71 SE8       29.58S
MINOT          CLOUDY    45  42  89 E22       29.57R
MINOT AFB      CLOUDY    45  45 100 SE23G32   29.57R
GARRISON         N/A     50  44  80 SE10      29.54S
WILLISTON      CLOUDY    51  44  77 NW15G22   29.57R
DICKINSON      MOSUNNY   56  32  40 NW24      29.59R
HETTINGER      MOSUNNY   55  34  45 NW18G32   29.65R
$$

 *****  OTHER OBSERVATIONS NORTHEAST NORTH DAKOTA  *****

CITY           SKY/WX    TMP DP  RH WIND       PRES   REMARKS
WALHALLA         N/A     41  41 100 SE16      29.84S
LANGDON        MIX PCPN  39  37  93 SE26G36   29.78S
CAVALIER       MIX PCPN  43  41  93 SE15G25   29.85S
GRAFTON        LGT RAIN  41  41 100 SE15      29.86S
CANDO          MIX PCPN  39  37  93 SE25G39   29.71S
FORT TOTTEN      N/A     40  37  91 SE14      29.95
ROLLA          MIX PCPN  39  39 100 SE30G39   29.72R
RUGBY          LGT RAIN  39  39 100 SE23G30   29.67R
 ***** THE ABOVE OBSERVATIONS ARE NON NWS ARE NOT QUALITY
        CONTROLLED AND MAY MIS-REPORT RAIN FOR SNOW...
$$

 *****  OTHER OBSERVATIONS SOUTHEAST NORTH DAKOTA *****

CITY           SKY/WX    TMP DP  RH WIND       PRES   REMARKS
COOPERSTOWN    MIX PCPN  39  39 100 SE30      29.73F
VALLEY CITY    FAIR      39  39 100 SE22G31   29.73F FOG
OAKES          MIX PCPN  41  41 100 E22G28    29.70S
GWINNER        CLOUDY    43  39  87 SE25G33   29.73F
SHEYENNE NWR     N/A     43  41  94 SE18      29.95S
BUFFALO          N/A     42  37  81 SE24        N/A
WYNDMERE       NOT AVBL
 ***** THE ABOVE OBSERVATIONS ARE NON NWS ARE NOT QUALITY
       CONTROLLED AND MAY MIS-REPORT RAIN FOR SNOW...
$$

  *****  WEATHER ACROSS NORTHERN MINNESOTA  *****

CITY           SKY/WX    TMP DP  RH WIND       PRES   REMARKS
FLAG ISLAND    CLOUDY    52  23  32 E12G17    29.91S
WARROAD        CLOUDY    54  32  43 SE14      29.91R
ROSEAU         CLOUDY    54  27  35 SE14      29.90R
HALLOCK        LGT RAIN  45  41  87 SE16      29.88R
THF RVR FALLS  CLOUDY    43  37  81 SE17G23   29.90R
HALSTAD          N/A     41  39  93 SE28        N/A
FOSSTON        LGT RAIN  39  37  93 SE14      29.91S
BAUDETTE       CLOUDY    55  24  30 SE10G17   29.91S
WASKISH        CLOUDY    52  27  37 SE13G18   29.93R
CROOKSTON      RAIN      41  39  93 SE20G26   29.88S
$$
  *****  WEATHER ACROSS CENTRAL AND WEST MINNESOTA  *****

CITY           SKY/WX    TMP DP  RH WIND       PRES   REMARKS
BEMIDJI        RAIN      39  35  87 SE15      29.92F
PARK RAPIDS    LGT RAIN  37  35  92 SE12      29.92S FOG
WADENA         RAIN      36  34  93 E13       29.90S
DETROIT LAKES  RAIN      37  36  93 SE23      29.86F
MOORHEAD       LGT RAIN  43  43 100 SE17G25   29.83S
FERGUS FALLS   TSTM      41  36  81 SE26G37   29.78F
ELBOW LAKE     CLOUDY    41  36  81 E21G28    29.82F
MORRIS MN      CLOUDY    43  36  75 SE23G29   29.81S
STAPLES        RAIN      34  34 100 E9        29.92S
WHEATON        CLOUDY    45  39  81 E23G31    29.81R
$$
  *****  WEATHER ELSEWHERE ACROSS MINNESOTA  *****

CITY           SKY/WX    TMP DP  RH WIND       PRES   REMARKS
DULUTH         CLOUDY    44  24  45 E10       30.00S
INTRNTL FALLS  CLOUDY    54  23  30 SE15G22   29.95S
ELY            CLOUDY    46  18  31 SE10      30.01R
CLOQUET        CLOUDY    43  23  45 E9        30.00F
BRAINERD       LGT RAIN  43  35  73 SE12G18   29.95F
HIBBING        CLOUDY    50  23  34 SE9       29.98F
ALEXANDRIA     CLOUDY    40  37  89 E16G29    29.87F
SAINT CLOUD    LGT RAIN  41  37  87 E12G17    29.94F FOG
MINNEAPOLIS    LGT RAIN  41  37  86 E16       29.95F
$$

  *****  WEATHER ACROSS SOUTH DAKOTA  *****

CITY           SKY/WX    TMP DP  RH WIND       PRES   REMARKS
SIOUX FALLS    PTSUNNY   62  41  46 SE18G32   29.63F
BROOKINGS      NOT AVBL
WATERTOWN      CLOUDY    50  38  63 SE22G31   29.68S
HURON          PTSUNNY   69  42  37 SE17G24   29.54F
SISSETON         N/A     42  38  85 SE20      29.75S
ABERDEEN       LGT RAIN  49  43  80 E16G23    29.63R
MITCHELL       MOSUNNY   71  45  39 SE28      29.52F
PIERRE         CLOUDY    71  44  37 NW21      29.52R
MOBRIDGE       CLOUDY    59  44  57 NW15      29.56R
RAPID CITY     PTSUNNY   57  37  47 N29G37    29.64R
$$

  *****  SOME WEATHER IN NEARBY STATES *****

CITY           SKY/WX    TMP DP  RH WIND       PRES   REMARKS
GLASGOW MT     PTSUNNY   59  21  23 W28G33    29.55S
GREAT FALLS MT MOSUNNY   51  23  33 SW33G43   29.67R
CHEYENNE WY    CLOUDY    51  21  30 NW26G40   29.70R
SCOTTSBLUFF NE CLOUDY    62  17  17 W18G31    29.68R
OMAHA NE       CLOUDY    55  44  66 SE24G32   29.66F
DES MOINES IA  CLOUDY    49  39  68 E15G30    29.86F
DAVENPORT IA   LGT RAIN  50  38  63 E8        30.04F
CHICAGO IL     CLOUDY    46  20  35 NE6       30.12S
EAU CLAIRE WI  LGT RAIN  45  37  73 S12       30.01F
LA CROSSE WI   CLOUDY    46  35  65 E12       30.02F
$$

  *****  SOME NATIONAL WEATHER *****

CITY           SKY/WX    TMP DP  RH WIND       PRES   REMARKS
LA GUARDIA NY  PTCLDY    51  32  48 NW26G36   29.69R
RALEIGH NC     MOSUNNY   69  24  18 NW9       29.85R
ATLANTA GA     SUNNY     74  30  19 NW10      29.91R
NEW ORLEANS LA MOSUNNY   81  52  36 NW5       29.89S
OKLAHOMA CITY  PTSUNNY   81  53  37 S21G31    29.70F
ALBUQUERQUE NM CLOUDY    72  14  11 W26G46    29.75F
SALT LAKE CITY MOSUNNY   51  19  28 CALM      30.05F
LOS ANGELES CA PTSUNNY   68  38  33 W15       29.93F
BOISE ID       CLOUDY    55  29  36 VRB3      29.98F
SEATTLE WA     CLOUDY    52  41  66 SE12      29.86F
$$

*** WEATHER ACROSS MANITOBA...SASKATCHEWAN AND ONTARIO ***
                ***ONTARIO***

CITY           SKY/WX    TMP DP  RH WIND       PRES   REMARKS
GERALDTON      MOSUNNY   48  25  40 NE5       30.07F
THUNDER BAY    PTSUNNY   50  19  29 SW10      30.08F
SIOUX LOOKOUT  PTSUNNY   52  21  30 S6        30.00F
TORONTO        MOSUNNY   46  12  25 NW17G28   30.00R
BIG TROUT LK   CLOUDY    46  19  34 VRB2      30.08F
PICKLE LAKE    PTSUNNY   52  23  32 SE5       30.03F
DRYDEN         CLOUDY    52  19  28 SE9       29.99S
KENORA         CLOUDY    52  21  30 E13G20    29.95F
$$
                *** MANITOBA***

CITY           SKY/WX    TMP DP  RH WIND       PRES   REMARKS
BRANDON        LGT RAIN  43  41  93 E16G24    29.76F FOG
DAUPHIN        LGT RAIN  46  37  71 SE16G23   29.80S
ISLAND LAKE    MOSUNNY   54  41  62 E6        30.02S
PILOT MOUND      N/A     41  39  93 SE23G30     N/A
THE PAS        CLOUDY    50  19  29 E20G25    29.90S
THOMPSON       MOSUNNY   37  25  60 E16G22    30.15S
WINNIPEG       CLOUDY    55  27  33 SE13G24   29.87S
LYNN LAKE      SUNNY     36  23  60 E17G24    30.13F
CHURCHILL      FLURRIES  25  19  80 NE9       30.37R WCI  15
GILLAM         PTSUNNY   28  23  80 NE14G21   30.25S WCI  17
$$
                ***SASKATCHEWAN***

CITY           SKY/WX    TMP DP  RH WIND       PRES   REMARKS
ESTEVAN        LGT RAIN  46  46 100 SE14      29.52  FOG
KINDERSLEY     CLOUDY    46  39  76 W16G25    29.44R
LLOYDMINSTER   LGT RAIN  39  37  93 E15G24    29.48S FOG
PRINCE ALBERT  FLURRIES  45  37  76 E25G32    29.64R
REGINA         LGT RAIN  45  45 100 SE17      29.50S FOG



USA.gov is the U.S. government's official web portal to all federal, state and local government web resources and services.